When you browse on this site, cookies collect data to enhance your experience and personalize the content and advertising you see.
Visit our Privacy Policy to learn more. By continuing to use the site, you agree to this use of cookies and data.
  • En España
  • Lista de países
  • Para 7 días
  • Temperatura del agua
  • El tiempo en el mapa
  • Informadores
  • user-avatar
    Iniciar sesión

    Tiempo cada hora Welwyn Garden City

    Hoy, 13 Noviembre, Miércoles

    Tiempo Temperatura Precipitaciones Viento Presión Humedad
    00:00 +3°C° 0 mm 5 mps 742 mmHg 89%
    01:00 +3°C° 0 mm 4 mps 742 mmHg 90%
    02:00 +3°C° 0 mm 4 mps 742 mmHg 92%
    03:00 +3°C° 0 mm 3 mps 742 mmHg 93%
    04:00 +2°C° 0 mm 3 mps 742 mmHg 93%
    05:00 +2°C° 0 mm 3 mps 742 mmHg 93%
    06:00 +2°C° 0 mm 3 mps 743 mmHg 93%
    07:00 +2°C° 0 mm 3 mps 743 mmHg 92%
    08:00 +3°C° 0 mm 3 mps 742 mmHg 91%
    09:00 +4°C° 0 mm 2 mps 742 mmHg 90%
    10:00 +5°C° 0 mm 2 mps 742 mmHg 87%
    11:00 +5°C° 0 mm 3 mps 742 mmHg 84%
    12:00 +5°C° 0 mm 3 mps 742 mmHg 81%
    13:00 +5°C° 0 mm 3 mps 741 mmHg 81%
    14:00 +5°C° 0 mm 3 mps 740 mmHg 80%
    15:00 +6°C° 0 mm 2 mps 739 mmHg 80%
    16:00 +5°C° 0 mm 3 mps 739 mmHg 81%
    17:00 +5°C° 0 mm 3 mps 738 mmHg 82%
    18:00 +4°C° 0 mm 3 mps 737 mmHg 83%
    19:00 +4°C° 0 mm 3 mps 736 mmHg 83%
    20:00 +4°C° 0 mm 4 mps 736 mmHg 83%
    21:00 +4°C° 0 mm 4 mps 735 mmHg 83%
    22:00 +4°C° 0 mm 4 mps 735 mmHg 84%
    23:00 +4°C° 0 mm 4 mps 734 mmHg 85%

    Mañana, 14 Noviembre, Jueves

    Tiempo Temperatura Precipitaciones Viento Presión Humedad
    00:00 +3°C° 0 mm 5 mps 734 mmHg 86%
    01:00 +3°C° 0.5 mm 5 mps 734 mmHg 87%
    02:00 +3°C° 0.5 mm 5 mps 734 mmHg 89%
    03:00 +4°C° 0.5 mm 6 mps 734 mmHg 90%
    04:00 +3°C° 1.4 mm 5 mps 734 mmHg 91%
    05:00 +3°C° 1.4 mm 5 mps 734 mmHg 91%
    06:00 +4°C° 1.4 mm 4 mps 735 mmHg 92%
    07:00 +4°C° 0.4 mm 4 mps 735 mmHg 90%
    08:00 +4°C° 0.4 mm 3 mps 736 mmHg 89%
    09:00 +3°C° 0.4 mm 3 mps 737 mmHg 87%
    10:00 +5°C° 0 mm 2 mps 737 mmHg 83%
    11:00 +6°C° 0 mm 2 mps 738 mmHg 79%
    12:00 +7°C° 0 mm 1 mps 738 mmHg 75%
    13:00 +6°C° 0 mm 2 mps 739 mmHg 76%
    14:00 +6°C° 0 mm 2 mps 739 mmHg 78%
    15:00 +6°C° 0 mm 2 mps 739 mmHg 80%
    16:00 +6°C° 0 mm 2 mps 740 mmHg 83%
    17:00 +5°C° 0 mm 2 mps 741 mmHg 86%
    18:00 +4°C° 0 mm 2 mps 741 mmHg 89%
    19:00 +4°C° 0 mm 2 mps 742 mmHg 90%
    20:00 +5°C° 0 mm 1 mps 742 mmHg 91%
    21:00 +4°C° 0 mm 1 mps 743 mmHg 91%
    22:00 +4°C° 0 mm 1 mps 743 mmHg 92%
    23:00 +4°C° 0 mm 1 mps 744 mmHg 92%

    Pasado mañana, 15 Noviembre, Viernes

    Tiempo Temperatura Precipitaciones Viento Presión Humedad
    00:00 +4°C° 0 mm 1 mps 744 mmHg 92%
    01:00 +4°C° 0 mm 1 mps 744 mmHg 92%
    02:00 +3°C° 0 mm 2 mps 745 mmHg 91%
    03:00 +3°C° 0 mm 2 mps 745 mmHg 91%
    04:00 +3°C° 0 mm 2 mps 745 mmHg 91%
    05:00 +3°C° 0 mm 2 mps 746 mmHg 91%
    06:00 +2°C° 0 mm 3 mps 746 mmHg 91%
    07:00 +2°C° 0 mm 3 mps 747 mmHg 90%
    08:00 +3°C° 0 mm 3 mps 747 mmHg 88%
    09:00 +3°C° 0 mm 4 mps 747 mmHg 87%
    10:00 +4°C° 0 mm 4 mps 747 mmHg 85%
    11:00 +5°C° 0 mm 5 mps 747 mmHg 82%
    12:00 +6°C° 0 mm 5 mps 747 mmHg 80%
    13:00 +6°C° 0.4 mm 5 mps 746 mmHg 81%
    14:00 +6°C° 0.4 mm 5 mps 746 mmHg 82%
    15:00 +6°C° 0.4 mm 5 mps 745 mmHg 84%
    16:00 +5°C° 0.2 mm 6 mps 745 mmHg 85%
    17:00 +4°C° 0.2 mm 6 mps 745 mmHg 86%
    18:00 +4°C° 0.2 mm 7 mps 744 mmHg 87%
    19:00 +4°C° 1.3 mm 7 mps 744 mmHg 88%
    20:00 +4°C° 1.3 mm 8 mps 744 mmHg 89%
    21:00 +3°C° 1.3 mm 9 mps 743 mmHg 90%
    22:00 +4°C° 1.2 mm 8 mps 743 mmHg 90%
    23:00 +4°C° 1.2 mm 7 mps 743 mmHg 90%

    16 Noviembre, Sábado

    Tiempo Temperatura Precipitaciones Viento Presión Humedad
    00:00 +4°C° 1.2 mm 6 mps 742 mmHg 90%
    01:00 +3°C° 0.1 mm 5 mps 742 mmHg 89%
    02:00 +3°C° 0.1 mm 5 mps 742 mmHg 88%
    03:00 +4°C° 0.1 mm 4 mps 742 mmHg 88%
    04:00 +4°C° 0 mm 4 mps 742 mmHg 88%
    05:00 +2°C° 0 mm 5 mps 742 mmHg 89%
    06:00 +2°C° 0 mm 5 mps 742 mmHg 90%
    07:00 +2°C° 0 mm 5 mps 742 mmHg 89%
    08:00 +3°C° 0 mm 5 mps 743 mmHg 89%
    09:00 +3°C° 0 mm 5 mps 743 mmHg 89%
    10:00 +5°C° 0 mm 5 mps 743 mmHg 87%
    11:00 +6°C° 0 mm 4 mps 743 mmHg 84%
    12:00 +6°C° 0 mm 4 mps 743 mmHg 81%
    13:00 +6°C° 0.1 mm 4 mps 743 mmHg 82%
    14:00 +7°C° 0.1 mm 3 mps 743 mmHg 83%
    15:00 +7°C° 0.1 mm 3 mps 743 mmHg 84%
    16:00 +6°C° 0 mm 2 mps 743 mmHg 86%
    17:00 +5°C° 0 mm 2 mps 744 mmHg 88%
    18:00 +4°C° 0 mm 2 mps 744 mmHg 91%
    19:00 +4°C° 0 mm 2 mps 744 mmHg 91%
    20:00 +4°C° 0 mm 2 mps 744 mmHg 91%
    21:00 +4°C° 0 mm 2 mps 745 mmHg 92%
    22:00 +4°C° 0 mm 2 mps 745 mmHg 92%
    23:00 +3°C° 0 mm 2 mps 745 mmHg 92%

    17 Noviembre, Domingo

    Tiempo Temperatura Precipitaciones Viento Presión Humedad
    00:00 +3°C° 0 mm 2 mps 745 mmHg 93%
    01:00 +3°C° 0 mm 2 mps 745 mmHg 93%
    02:00 +3°C° 0 mm 2 mps 745 mmHg 93%
    03:00 +3°C° 0 mm 2 mps 745 mmHg 93%
    04:00 +3°C° 0 mm 2 mps 745 mmHg 93%
    05:00 +4°C° 0 mm 1 mps 745 mmHg 93%
    06:00 +4°C° 0 mm 1 mps 745 mmHg 94%
    07:00 +3°C° 0 mm 2 mps 746 mmHg 93%
    08:00 +4°C° 0 mm 2 mps 746 mmHg 93%
    09:00 +4°C° 0 mm 2 mps 746 mmHg 93%
    10:00 +5°C° 0 mm 2 mps 747 mmHg 89%
    11:00 +6°C° 0 mm 2 mps 747 mmHg 86%
    12:00 +7°C° 0 mm 2 mps 747 mmHg 83%
    13:00 +7°C° 0 mm 2 mps 747 mmHg 85%
    14:00 +7°C° 0 mm 2 mps 747 mmHg 86%
    15:00 +6°C° 0 mm 2 mps 747 mmHg 87%
    16:00 +6°C° 0 mm 2 mps 747 mmHg 89%
    17:00 +5°C° 0 mm 2 mps 747 mmHg 91%
    18:00 +4°C° 0 mm 2 mps 747 mmHg 94%
    19:00 +4°C° 0 mm 2 mps 748 mmHg 94%
    20:00 +4°C° 0 mm 1 mps 748 mmHg 94%
    21:00 +4°C° 0 mm 1 mps 748 mmHg 94%
    22:00 +4°C° 0 mm 1 mps 748 mmHg 94%
    23:00 +4°C° 0 mm 1 mps 748 mmHg 95%

    18 Noviembre, Lunes

    Tiempo Temperatura Precipitaciones Viento Presión Humedad
    00:00 +4°C° 0 mm 1 mps 748 mmHg 95%
    01:00 +4°C° 0 mm 1 mps 748 mmHg 94%
    02:00 +4°C° 0 mm 1 mps 748 mmHg 94%
    03:00 +4°C° 0 mm 1 mps 748 mmHg 93%
    04:00 +4°C° 0 mm 1 mps 748 mmHg 93%
    05:00 +4°C° 0 mm 1 mps 748 mmHg 93%
    06:00 +5°C° 0 mm 1 mps 748 mmHg 92%
    07:00 +5°C° 0 mm 1 mps 748 mmHg 92%
    08:00 +5°C° 0 mm 1 mps 748 mmHg 91%
    09:00 +5°C° 0 mm 1 mps 749 mmHg 91%
    10:00 +6°C° 0 mm 1 mps 748 mmHg 88%
    11:00 +7°C° 0 mm 1 mps 748 mmHg 84%
    12:00 +8°C° 0 mm 1 mps 748 mmHg 81%
    13:00 +7°C° 0 mm 1 mps 748 mmHg 81%
    14:00 +7°C° 0 mm 1 mps 748 mmHg 82%
    15:00 +7°C° 0 mm 1 mps 747 mmHg 83%
    16:00 +6°C° 0 mm 2 mps 747 mmHg 85%
    17:00 +5°C° 0 mm 2 mps 747 mmHg 88%
    18:00 +4°C° 0 mm 2 mps 747 mmHg 90%
    19:00 +4°C° 0 mm 2 mps 747 mmHg 90%
    20:00 +3°C° 0 mm 3 mps 747 mmHg 90%
    21:00 +3°C° 0 mm 3 mps 747 mmHg 89%
    22:00 +4°C° 0.2 mm 4 mps 746 mmHg 90%
    23:00 +4°C° 0.2 mm 4 mps 746 mmHg 90%
    Mostrar más